This is the latest recevied weather packets stored in our database for station/object N3EDS. If no packets are shown the sender has not sent any weather packets the latest 10 day(s).
| Time | Temp. | Humidity | Pressure | Rain* | Wind** | Luminosity | Snow |
|---|---|---|---|---|---|---|---|
| 1777754063 | 6.67° C | 68% | 1013.6 hPa | 0 mm | - | 155 W/m² | - |
| 1777753759 | 6.67° C | 66% | 1013.6 hPa | 0 mm | - | 123 W/m² | - |
| 1777753456 | 6.67° C | 64% | 1013.7 hPa | 0 mm | - | 189 W/m² | - |
| 1777753154 | 7.22° C | 64% | 1013.4 hPa | 0 mm | - | 164 W/m² | - |
| 1777752850 | 7.22° C | 60% | 1013.7 hPa | 0 mm | - | 172 W/m² | - |
| 1777752547 | 8.33° C | 62% | 1013.8 hPa | 0 mm | - | 192 W/m² | - |
| 1777752242 | 7.22° C | 63% | 1013.8 hPa | 0 mm | - | 451 W/m² | - |
| 1777751941 | 6.67° C | 65% | 1013.8 hPa | 0 mm | - | 297 W/m² | - |
| 1777751637 | 6.67° C | 66% | 1013.8 hPa | 0 mm | - | 107 W/m² | - |
| 1777751333 | 7.22° C | 65% | 1013.6 hPa | 0 mm | - | 115 W/m² | - |
| 1777751030 | 6.67° C | 68% | 1014.1 hPa | 0 mm | - | 336 W/m² | - |
| 1777750726 | 6.11° C | 65% | 1014.2 hPa | 0 mm | - | 179 W/m² | - |
| 1777750423 | 6.11° C | 67% | 1013.9 hPa | 0 mm | - | 87 W/m² | - |
| 1777750119 | 6.11° C | 68% | 1014.2 hPa | 0 mm | - | 54 W/m² | - |
| 1777749816 | 6.11° C | 68% | 1014.4 hPa | 0 mm | - | 65 W/m² | - |
| 1777749513 | 6.11° C | 64% | 1014.2 hPa | 0 mm | - | 108 W/m² | - |
| 1777749211 | 6.11° C | 65% | 1014.4 hPa | 0 mm | - | 145 W/m² | - |
| 1777748908 | 6.11° C | 65% | 1014.3 hPa | 0 mm | - | 140 W/m² | - |
| 1777748605 | 6.67° C | 64% | 1014.5 hPa | 0 mm | - | 79 W/m² | - |
| 1777748301 | 6.67° C | 63% | 1014.4 hPa | 0 mm | - | 158 W/m² | - |
| 1777747996 | 7.22° C | 64% | 1014.2 hPa | 0 mm | - | 307 W/m² | - |
| 1777747694 | 6.67° C | 63% | 1014.2 hPa | 0 mm | - | 307 W/m² | - |
| 1777747389 | 6.67° C | 65% | 1014.5 hPa | 0 mm | - | 222 W/m² | - |
| 1777747081 | 6.67° C | 64% | 1014.5 hPa | 0 mm | - | 243 W/m² | - |
| 1777746776 | 6.67° C | 65% | 1014.5 hPa | 0 mm | - | 315 W/m² | - |
* Rain latest hour (hover to see other rain measurements)
** Current wind speed in m/s (hover to see current wind gust speed)